timestamp,surface_pressure_avg,surface_temp_avg,battery_voltage,lat,long
2022-03-28 00:09:01+00:00,259.2314,1.5,11.3,47.84626,-54.09684
2022-03-28 00:19:00+00:00,255.4898,1.5,11.3,47.84626,-54.09684
2022-03-28 00:29:00+00:00,249.8498,1.55,11.3,47.84626,-54.09684
2022-03-28 00:39:00+00:00,246.1381,1.53,11.3,47.84626,-54.09684
2022-03-28 00:49:00+00:00,241.4314,1.52,11.3,47.84626,-54.09684
2022-03-28 00:59:00+00:00,234.8398,1.56,11.3,47.84626,-54.09684
2022-03-28 01:09:00+00:00,235.3914,1.52,11.3,47.84626,-54.09684
2022-03-28 01:19:00+00:00,245.8331,1.5,11.3,47.84626,-54.09684
2022-03-28 01:29:00+00:00,245.3848,1.52,11.3,47.84626,-54.09684
2022-03-28 01:39:00+00:00,237.6348,1.54,11.3,47.84626,-54.09684
2022-03-28 01:49:00+00:00,234.3031,1.56,11.3,47.84626,-54.09684
2022-03-28 01:59:00+00:00,239.3114,1.57,11.3,47.84626,-54.09684
2022-03-28 02:09:00+00:00,237.4214,1.55,11.3,47.84626,-54.09684
2022-03-28 02:19:01+00:00,230.6164,1.5,11.3,47.84626,-54.09684
2022-03-28 02:29:01+00:00,231.5364,1.49,11.3,47.84626,-54.09684
2022-03-28 02:39:01+00:00,234.5648,1.49,11.3,47.84626,-54.09684
2022-03-28 02:49:01+00:00,232.0464,1.5,11.3,47.84626,-54.09684
2022-03-28 02:59:01+00:00,226.8997,1.5,11.3,47.84626,-54.09684
2022-03-28 03:09:01+00:00,234.7247,1.5,11.3,47.84626,-54.09684
2022-03-28 03:19:00+00:00,237.5048,1.5,11.3,47.84626,-54.09684
2022-03-28 03:29:00+00:00,233.0831,1.46,11.3,47.84626,-54.09684
2022-03-28 03:39:00+00:00,234.0531,1.48,11.3,47.84626,-54.09684
2022-03-28 03:49:00+00:00,237.5897,1.49,11.3,47.84626,-54.09684
2022-03-28 03:59:00+00:00,241.3648,1.43,11.3,47.84626,-54.09684
2022-03-28 04:09:00+00:00,241.4881,1.45,11.3,47.84626,-54.09684
2022-03-28 04:19:00+00:00,242.5064,1.5,11.3,47.84626,-54.09684
2022-03-28 04:29:00+00:00,250.8214,1.5,11.3,47.84626,-54.09684
2022-03-28 04:39:00+00:00,255.9764,1.5,11.3,47.84626,-54.09684
2022-03-28 04:49:00+00:00,254.6364,1.5,11.3,47.84626,-54.09684
2022-03-28 04:59:00+00:00,253.5447,1.5,11.3,47.84626,-54.09684
2022-03-28 05:09:00+00:00,265.2065,1.5,11.3,47.84626,-54.09684
2022-03-28 05:19:01+00:00,265.3214,1.5,11.3,47.84626,-54.09684
2022-03-28 05:29:01+00:00,268.1197,1.5,11.3,47.84626,-54.09684
2022-03-28 05:39:01+00:00,283.1897,1.5,11.3,47.84626,-54.09684
2022-03-28 05:49:01+00:00,302.6763,1.5,11.3,47.84626,-54.09684
2022-03-28 05:59:01+00:00,301.1198,1.5,11.3,47.84626,-54.09684
2022-03-28 06:09:01+00:00,306.038,1.5,11.3,47.84626,-54.09684
2022-03-28 06:19:01+00:00,322.8046,1.5,11.3,47.84626,-54.09684
2022-03-28 06:29:01+00:00,329.7663,1.5,11.3,47.84626,-54.09684
2022-03-28 06:39:01+00:00,321.9863,1.5,11.3,47.84626,-54.09684
2022-03-28 06:49:01+00:00,324.8412,1.5,11.3,47.84626,-54.09684
2022-03-28 06:59:01+00:00,332.1230000000001,1.5,11.3,47.84626,-54.09684
2022-03-28 07:09:01+00:00,335.4346,1.5,11.3,47.84626,-54.09684
2022-03-28 07:19:00+00:00,333.2463,1.5,11.3,47.84626,-54.09684
2022-03-28 07:29:00+00:00,339.6346,1.5,11.3,47.84626,-54.09684
2022-03-28 07:39:00+00:00,350.37300000000016,1.5,11.3,47.84626,-54.09684
2022-03-28 07:49:00+00:00,344.653,1.5,11.3,47.84626,-54.09684
2022-03-28 07:59:00+00:00,344.1864,1.47,11.3,47.84626,-54.09684
2022-03-28 08:09:00+00:00,353.0963,1.44,11.3,47.84626,-54.09684
2022-03-28 08:19:00+00:00,353.4279,1.47,11.3,47.84626,-54.09684
2022-03-28 08:29:00+00:00,347.3646,1.5,11.3,47.84626,-54.09684
2022-03-28 08:39:00+00:00,349.4546,1.5,11.3,47.84626,-54.09684
2022-03-28 08:49:00+00:00,355.4429,1.48,11.3,47.84626,-54.09684
2022-03-28 08:59:00+00:00,350.2513,1.44,11.3,47.84626,-54.09684
2022-03-28 09:09:00+00:00,341.9431,1.41,11.3,47.84626,-54.09684
2022-03-28 09:19:00+00:00,348.1263,1.45,11.3,47.84626,-54.09684
2022-03-28 09:29:00+00:00,348.5813,1.45,11.3,47.84626,-54.09684
2022-03-28 09:39:00+00:00,343.0229,1.45,11.3,47.84626,-54.09684
2022-03-28 09:49:00+00:00,340.4896,1.46,11.3,47.84626,-54.09684
2022-03-28 09:59:00+00:00,344.7913,1.47,11.3,47.84626,-54.09684
2022-03-28 10:09:00+00:00,338.8130000000001,1.48,11.3,47.84626,-54.09684
2022-03-28 10:19:00+00:00,324.3246,1.48,11.3,47.84626,-54.09684
2022-03-28 10:29:00+00:00,323.938,1.48,11.3,47.84626,-54.09684
2022-03-28 10:39:00+00:00,329.983,1.48,11.3,47.84626,-54.09684
2022-03-28 10:49:00+00:00,319.4397,1.54,11.3,47.84626,-54.09684
2022-03-28 10:59:00+00:00,305.048,1.5,11.3,47.84626,-54.09684
2022-03-28 11:09:00+00:00,307.698,1.5,11.3,47.84626,-54.09684
2022-03-28 11:19:01+00:00,308.8831,1.5,11.3,47.84626,-54.09684
2022-03-28 11:29:01+00:00,294.6479,1.5,11.3,47.84626,-54.09684
2022-03-28 11:39:01+00:00,282.9614,1.5,11.3,47.84626,-54.09684
2022-03-28 11:49:01+00:00,283.6113,1.5,11.3,47.84626,-54.09684
2022-03-28 11:59:01+00:00,280.4714,1.5,11.3,47.84626,-54.09684
2022-03-28 12:09:01+00:00,271.8014,1.53,11.3,47.84626,-54.09684
2022-03-28 12:19:00+00:00,266.3014,1.55,11.3,47.84626,-54.09684
2022-03-28 12:29:00+00:00,264.993,1.57,11.3,47.84626,-54.09684
2022-03-28 12:39:00+00:00,259.33799999999997,1.59,11.3,47.84626,-54.09684
2022-03-28 12:49:00+00:00,251.4447,1.58,11.3,47.84626,-54.09684
2022-03-28 12:59:00+00:00,249.0148,1.54,11.3,47.84626,-54.09684
2022-03-28 13:09:00+00:00,249.0897,1.54,11.3,47.84626,-54.09684
2022-03-28 13:19:01+00:00,243.0714,1.59,11.3,47.84626,-54.09684
2022-03-28 13:29:01+00:00,236.7581,1.6,11.3,47.84626,-54.09684
2022-03-28 13:39:01+00:00,232.8281,1.58,11.3,47.84626,-54.09684
2022-03-28 13:49:01+00:00,228.2614,1.59,11.3,47.84626,-54.09684
2022-03-28 13:59:01+00:00,223.5048,1.59,11.3,47.84626,-54.09684
2022-03-28 14:09:01+00:00,222.6964,1.59,11.3,47.84626,-54.09684
2022-03-28 14:19:00+00:00,219.6414,1.6,11.3,47.84626,-54.09684
2022-03-28 14:29:00+00:00,209.2981,1.68,11.3,47.84626,-54.09684
2022-03-28 14:39:00+00:00,204.2881,1.7,11.3,47.84626,-54.09684
2022-03-28 14:49:00+00:00,210.1914,1.7,11.3,47.84626,-54.09684
2022-03-28 14:59:00+00:00,210.1931,1.7,11.3,47.84626,-54.09684
2022-03-28 15:09:00+00:00,203.4965,1.69,11.3,47.84626,-54.09684
2022-03-28 15:19:01+00:00,201.1998,1.7,11.3,47.84626,-54.09684
2022-03-28 15:29:01+00:00,206.1365,1.69,11.3,47.84626,-54.09684
2022-03-28 15:39:01+00:00,208.4298,1.7,11.3,47.84626,-54.09684
2022-03-28 15:49:01+00:00,201.4565,1.78,11.3,47.84626,-54.09684
2022-03-28 15:59:01+00:00,197.2664,1.8,11.3,47.84626,-54.09684
2022-03-28 16:09:01+00:00,199.9731,1.8,11.3,47.84626,-54.09684
2022-03-28 16:19:01+00:00,205.5231,1.8,11.3,47.84626,-54.09684
2022-03-28 16:29:01+00:00,208.9631,1.78,11.3,47.84626,-54.09684
2022-03-28 16:39:01+00:00,207.8648,1.8,11.3,47.84626,-54.09684
2022-03-28 16:49:01+00:00,215.3297,1.8,11.3,47.84626,-54.09684
2022-03-28 16:59:01+00:00,230.3281,1.8,11.3,47.84626,-54.09684
2022-03-28 17:09:01+00:00,227.7032,1.8,11.3,47.84626,-54.09684
2022-03-28 17:19:00+00:00,224.5398,1.8,11.3,47.84626,-54.09684
2022-03-28 17:29:00+00:00,239.0647,1.8,11.3,47.84626,-54.09684
2022-03-28 17:39:00+00:00,248.5364,1.72,11.3,47.84626,-54.09684
2022-03-28 17:49:00+00:00,242.2881,1.8,11.3,47.84626,-54.09684
2022-03-28 17:59:00+00:00,245.3531,1.8,11.3,47.84626,-54.09684
2022-03-28 18:09:00+00:00,260.6381,1.8,11.3,47.84626,-54.09684
2022-03-28 18:19:01+00:00,263.5414,1.8,11.3,47.84626,-54.09684
2022-03-28 18:29:01+00:00,260.5014,1.8,11.3,47.84626,-54.09684
2022-03-28 18:39:01+00:00,271.4031,1.78,11.3,47.84626,-54.09684
2022-03-28 18:49:01+00:00,283.7814,1.73,11.3,47.84626,-54.09684
2022-03-28 18:59:01+00:00,292.4097,1.74,11.3,47.84626,-54.09684
2022-03-28 19:09:01+00:00,295.4481,1.77,11.3,47.84626,-54.09684
2022-03-28 19:19:01+00:00,299.2281,1.75,11.3,47.84626,-54.09684
2022-03-28 19:29:01+00:00,302.0847,1.8,11.3,47.84626,-54.09684
2022-03-28 19:39:01+00:00,305.808,1.8,11.3,47.84626,-54.09684
2022-03-28 19:49:01+00:00,310.8147,1.87,11.3,47.84626,-54.09684
2022-03-28 19:59:01+00:00,307.438,1.97,11.3,47.84626,-54.09684
2022-03-28 20:09:01+00:00,305.0679,1.9,11.3,47.84626,-54.09684
2022-03-28 20:19:00+00:00,313.5864,1.9,11.3,47.84626,-54.09684
2022-03-28 20:29:00+00:00,319.4547,1.9,11.3,47.84626,-54.09684
2022-03-28 20:39:00+00:00,319.1047,1.9,11.3,47.84626,-54.09684
2022-03-28 20:49:00+00:00,322.9113,1.8,11.3,47.84626,-54.09684
2022-03-28 20:59:00+00:00,326.8113,1.81,11.3,47.84626,-54.09684
2022-03-28 21:09:00+00:00,325.1647,1.9,11.3,47.84626,-54.09684
2022-03-28 21:19:01+00:00,324.0063,2.08,11.3,47.84626,-54.09684
2022-03-28 21:29:01+00:00,327.93300000000005,2.15,11.3,47.84626,-54.09684
2022-03-28 21:39:01+00:00,319.3397,2.2,11.3,47.84626,-54.09684
2022-03-28 21:49:01+00:00,309.453,2.1,11.3,47.84626,-54.09684
2022-03-28 21:59:01+00:00,320.2197,1.99,11.3,47.84626,-54.09684
2022-03-28 22:09:01+00:00,329.5663,2.0,11.3,47.84626,-54.09684
2022-03-28 22:19:01+00:00,324.263,1.9,11.3,47.84626,-54.09684
2022-03-28 22:29:01+00:00,316.4846,1.94,11.3,47.84626,-54.09684
2022-03-28 22:39:01+00:00,319.593,1.91,11.3,47.84626,-54.09684
2022-03-28 22:49:01+00:00,325.528,1.8,11.3,47.84626,-54.09684
2022-03-28 22:59:01+00:00,315.2646,1.8,11.3,47.84626,-54.09684
2022-03-28 23:09:01+00:00,308.278,1.8,11.3,47.84626,-54.09684
2022-03-28 23:19:01+00:00,303.043,1.8,11.3,47.84626,-54.09684
2022-03-28 23:29:01+00:00,302.0514,1.8,11.3,47.84626,-54.09684
2022-03-28 23:39:01+00:00,297.2664,1.8,11.3,47.84626,-54.09684
2022-03-28 23:49:01+00:00,293.568,1.8,11.3,47.84626,-54.09684
2022-03-28 23:59:01+00:00,294.4581,1.8,11.3,47.84626,-54.09684
